"Pseudo-MPEC" for C370NY2

Created 2020 Sep 16 22:07:14 UT using Find_Orb

Click here for an explanation of pseudo-MPECs

 
 Astrometry: 
     C370NY2  C2020 09 15.44075 01 38 07.17 -09 30 49.4    ~9FBM 19.9 GVNEOCPG96
     C370NY2  C2020 09 15.44594 01 38 06.46 -09 28 54.9    ~9FBM 19.7 GVNEOCPG96
     C370NY2  C2020 09 15.45112 01 38 05.78 -09 27 02.0    ~9FBM 19.8 GVNEOCPG96
     C370NY2  C2020 09 15.45628 01 38 05.10 -09 25 10.3    ~9FBM 19.5 GVNEOCPG96
     C370NY2  C2020 09 15.47984 01 38 01.94 -09 16 32.5    ~9FBq 19.6 GVNEOCPI52
     C370NY2  C2020 09 15.48060 01 38 01.83 -09 16 16.1    ~9FBq 19.2 GVNEOCPI52
     C370NY2  C2020 09 15.48135 01 38 01.72 -09 15 59.4    ~9FBq 19.5 GVNEOCPI52
     C370NY2  C2020 09 15.48210 01 38 01.64 -09 15 43.2    ~9FBq 19.7 GVNEOCPI52
     C370NY2 1C2020 09 154AYBkEWIpI)SYtvLmYLs+AstrometryU2?#8?[L;:H,:Yg=*6F]o246
     C370NY2 1C2020 09 15A4Im[]s.BN@bQ!TJ\ZeP)rj9bF).^ROrVv-9o;[w5w(6QSrfIIjm246
     C370NY2 1C2020 09 15e]U2fpredacted;sGBODOBmDWkYUMp`hykOC_;'n'G2w@ZsIXHk%246
     C370NY2 1C2020 09 15F#p%2xuLXSW/(!Hw\qX))U$=(MOPsUPv%Vb#+4\#g93Jclickn5!246
     C370NY2 1C2020 09 15P,Z4ji8-rheree7^lS4qcvOne1r,for$_0MNf#[F7%iOf;o#-oKB246
     C370NY2 1C2020 09 15Ahrp67'bD_GT2P@j1@'jd1V%Zw3O/Jj\@'s!CqaELsuFc`AEP_0,246
     C370NY2 1C2020 09 15d6f#prg@=#;xvAexplanationnWft+atnG;mQ#^?m$5Ktalo$odk246
     C370NY2 NC2020 09 16D98d3CLb7MW_%2b=Q0A@[p'M?`v)bgc`[!KHDw06$hu]7+Gv%\F,L01
     C370NY2 NC2020 09 16ceF_H/'1ob3@01quGPcB3=4hH[Mr3[)Zu+Cld)gNo8Ihf9V)Mx+bL01
     C370NY2 NC2020 09 162ZZp=4kHWmI16_qOcgqOM3-KpAQ*U+Tr?Etvlmy#Ij=t?aj/Bv)CL01
     C370NY2 NC2020 09 16;SeF^@Q8mp8AF*4E.75%1._MSnoqkRn`,3`D.k6!;Nva3e`uPh8_L01
     C370NY2 KC2020 09 16;k-dR1lHDRF,w]a8e^SxI:s%DMm\2.NtrjLiU?kTK8`#uH;:,o9/L01
     C370NY2 KC2020 09 16.06944701 37 32.62 -05 49 56.8    ~9G2M 19.7 GVNEOCPI93
     C370NY2 KC2020 09 16.07263801 37 32.20 -05 48 51.7    ~9G2M 19.4 GVNEOCPI93
     C370NY2 KC2020 09 16.07582901 37 31.82 -05 47 47.2    ~9G2M 19.8 GVNEOCPI93
     C370NY2  C2020 09 16.33406 01 37 19.60 -04 20 58.9    ~9G8q 19.9 GVNEOCPI52
     C370NY2  C2020 09 16.33482 01 37 19.52 -04 20 43.8    ~9G8q 19.5 GVNEOCPI52
     C370NY2  C2020 09 16.33557 01 37 19.39 -04 20 29.3    ~9G8q 19.6 GVNEOCPI52
     C370NY2  C2020 09 16.33632 01 37 19.32 -04 20 14.2    ~9G8q 19.5 GVNEOCPI52

Station data:
(246) Klet Observatory-KLENOT  (N48.863293 E14.288100)  Czech Republic.
   1.06-m KLENOT telescope.
(G96) Mt. Lemmon Survey  (N32.442754 W110.788720)  US/Arizona.  Observers T.
   A. Pruyne, B. M. Africano, E. J. Christensen, G. A. Farneth, D. C. Fuls,
   A. R. Gibbs, A. D. Grauer, H. Gröller, J. A. Johnson, R. A. Kowalski, S.
   M. Larson, G. J. Leonard, D. Rankin, R. L. Seaman, F. C. Shelly. 1.5-m
   reflector + 10K CCD.
(I52) Steward Observatory, Mt. Lemmon Station  (N32.442547 W110.788920)
   US/Arizona.  Observers T. A. Pruyne, B. M. Africano, E. J. Christensen, G.
   A. Farneth, D. C. Fuls, A. R. Gibbs, A. D. Grauer, H. Gröller, J. A.
   Johnson, R. A. Kowalski, S. M. Larson, G. J. Leonard, D. Rankin, R. L.
   Seaman, F. C. Shelly. 1.0-m reflector + CCD.
(I93) St Pardon de Conques  (N44.558710 W0.203000)  France.  Observer F.
   Losse. 0.40-m f/3.7 reflector + CCD.
(L01) Višnjan Observatory, Tičan  (N45.290900 E13.749300)  Croatia.
   Observers K. Korlević, E. Pettarin. Measurer E. Pettarin. 1.0-m f/2.9
   reflector + CCD.

Orbital elements:  C370NY2
   Perihelion 2020 Aug 27.384249 +/- 0.0148 TT =  9:13:19 (JD 2459088.884249)
Epoch 2020 Sep 16.0 TT = JDT 2459108.5   Earth MOID: 0.0345   AutoNEOCP
M   7.69385403 +/- 0.037            (J2000 ecliptic)
n   0.39222836 +/- 0.00177          Peri.  333.82917 +/- 0.017
a   1.84831810 +/- 0.00555          Node   358.07458 +/- 0.0038
e   0.4498852 +/- 0.00163           Incl.    8.95104 +/- 0.025
P   2.51/917.82d           H 25.5   G  0.15   U  8.5  
q 1.01678702 +/- 6.66e-5    Q 2.67984918 +/- 0.0111
From 27 observations 2020 Sept. 15-16 (21.5 hr); mean residual 0".46
Residuals in arcseconds: 
200915 G96  .45-  .19+    200915 246  .43-  .06+    200916 L01  .08+  .06-    
200915 G96  .33-  .81+    200915 246  .08-  .59+    200916 L01  .23-  .77+    
200915 G96  .14+  .07+    200915 246  .13+  .09-    200916 I93  .24+  .34+    
200915 G96  .50+  1.4-    200915 246  .81+  .17+    200916 I93  .05-  .47+    
200915 I52  .14+  .23+    200915 246  .00   .81-    200916 I93  .25+  .03+    
200915 I52  .02-  .00     200915 246  .24-  .29-    200916 I52  .22-  .17-    
200915 I52  .21-  .28+    200916 L01  .65-  .00     200916 I52  .07+  .04-    
200915 I52  .04+  .06+    200916 L01  .04+  .00     200916 I52  .40-  .32-    
200915 246  .10+  1.9-    200916 L01  .58+  .35+    200916 I52  .03+  .01+    

Ephemerides (geocentric):
Date (UTC) HH   RA              Dec         delta   r     elong  mag " sig PA
---- -- -- --  -------------   -----------  ------ ------ -----  --- ---- ---
2020 09 16 22  01 36 40.876   -01 14 21.02  .04358 1.0433 150.5 20.1 .500  71
2020 09 16 23  01 36 38.422   -01 01 39.95  .04370 1.0434 150.5 20.1 .535  66
2020 09 17 00  01 36 35.973   -00 49 02.95  .04381 1.0435 150.6 20.1 .574  62
2020 09 17 01  01 36 33.529   -00 36 30.03  .04393 1.0436 150.6 20.1 .617  58
2020 09 17 02  01 36 31.089   -00 24 01.17  .04405 1.0437 150.7 20.1 .662  55
2020 09 17 03  01 36 28.653   -00 11 36.35  .04417 1.0439 150.7 20.1 .710  52
2020 09 17 04  01 36 26.222   +00 00 44.44  .04429 1.0440 150.7 20.1 .761  49
2020 09 17 05  01 36 23.795   +00 13 01.20  .04441 1.0441 150.7 20.1 .814  47
2020 09 17 06  01 36 21.372   +00 25 13.95  .04453 1.0442 150.8 20.1 .869  45
2020 09 17 07  01 36 18.954   +00 37 22.71  .04465 1.0443 150.8 20.1 .927  43
2020 09 17 08  01 36 16.540   +00 49 27.48  .04478 1.0444 150.8 20.1 .986  41
2020 09 17 09  01 36 14.131   +01 01 28.27  .04490 1.0445 150.9 20.1 1.05  39
2020 09 17 10  01 36 11.725   +01 13 25.11  .04502 1.0446 150.9 20.1 1.11  37
2020 09 17 11  01 36 09.324   +01 25 18.00  .04515 1.0447 150.9 20.1 1.17  36
2020 09 17 12  01 36 06.927   +01 37 06.96  .04527 1.0448 150.9 20.1 1.24  35
2020 09 17 13  01 36 04.534   +01 48 52.00  .04540 1.0449 151.0 20.1 1.31  34
2020 09 17 14  01 36 02.145   +02 00 33.13  .04552 1.0450 151.0 20.1 1.38  32
2020 09 17 15  01 35 59.760   +02 12 10.38  .04565 1.0451 151.0 20.2 1.45  31
2020 09 17 16  01 35 57.379   +02 23 43.75  .04578 1.0452 151.0 20.2 1.52  30
2020 09 17 17  01 35 55.002   +02 35 13.26  .04590 1.0454 151.1 20.2 1.59  30
2020 09 17 18  01 35 52.629   +02 46 38.93  .04603 1.0455 151.1 20.2 1.66  29
2020 09 17 19  01 35 50.260   +02 58 00.77  .04616 1.0456 151.1 20.2 1.74  28
2020 09 17 20  01 35 47.894   +03 09 18.79  .04629 1.0457 151.1 20.2 1.81  27
2020 09 17 21  01 35 45.533   +03 20 33.01  .04642 1.0458 151.1 20.2 1.89  26
2020 09 17 22  01 35 43.176   +03 31 43.45  .04655 1.0459 151.1 20.2 1.97  26
2020 09 17 23  01 35 40.822   +03 42 50.12  .04668 1.0460 151.2 20.2 2.05  25
2020 09 18 00  01 35 38.472   +03 53 53.04  .04681 1.0461 151.2 20.2 2.13  25
2020 09 18 01  01 35 36.126   +04 04 52.23  .04694 1.0462 151.2 20.2 2.21  24
2020 09 18 02  01 35 33.784   +04 15 47.69  .04707 1.0463 151.2 20.2 2.29  24
2020 09 18 03  01 35 31.445   +04 26 39.45  .04721 1.0465 151.2 20.2 2.37  23
2020 09 18 04  01 35 29.110   +04 37 27.53  .04734 1.0466 151.2 20.2 2.46  23
2020 09 18 05  01 35 26.779   +04 48 11.94  .04747 1.0467 151.2 20.2 2.54  22
2020 09 18 06  01 35 24.451   +04 58 52.69  .04761 1.0468 151.2 20.2 2.63  22
2020 09 18 07  01 35 22.127   +05 09 29.81  .04774 1.0469 151.3 20.2 2.71  21
2020 09 18 08  01 35 19.806   +05 20 03.31  .04788 1.0470 151.3 20.2 2.80  21
2020 09 18 09  01 35 17.489   +05 30 33.21  .04801 1.0471 151.3 20.3 2.88  20
2020 09 18 10  01 35 15.176   +05 40 59.52  .04815 1.0472 151.3 20.3 2.97  20
2020 09 18 11  01 35 12.866   +05 51 22.26  .04828 1.0473 151.3 20.3 3.06  20
2020 09 18 12  01 35 10.559   +06 01 41.46  .04842 1.0475 151.3 20.3 3.15  19
2020 09 18 13  01 35 08.256   +06 11 57.12  .04856 1.0476 151.3 20.3 3.24  19
2020 09 18 14  01 35 05.957   +06 22 09.26  .04870 1.0477 151.3 20.3 3.33  19
2020 09 18 15  01 35 03.661   +06 32 17.91  .04884 1.0478 151.3 20.3 3.42  19
2020 09 18 16  01 35 01.368   +06 42 23.08  .04897 1.0479 151.3 20.3 3.51  18
2020 09 18 17  01 34 59.079   +06 52 24.78  .04911 1.0480 151.3 20.3 3.61  18
2020 09 18 18  01 34 56.793   +07 02 23.04  .04925 1.0481 151.3 20.3 3.70  18
2020 09 18 19  01 34 54.510   +07 12 17.87  .04939 1.0483 151.3 20.3 3.79  17
2020 09 18 20  01 34 52.231   +07 22 09.30  .04953 1.0484 151.3 20.3 3.89  17
2020 09 18 21  01 34 49.955   +07 31 57.32  .04967 1.0485 151.3 20.3 3.98  17